| time (UTC) | temp F | wind direction | speed knots | gust knots | rain 1hr in | rain 24hr in | rain mn in | humidity % | barometer mb |
| 20260505112043 | 48 | 159 | 7.8 | 17.4 | 0.00 | 0.00 | 0.00 | 91 | 1012.5 |
| 20260505111557 | 48 | 164 | 7.8 | 19.1 | 0.00 | 0.00 | 0.00 | 91 | 1012.5 |
| 20260505111046 | 48 | 161 | 7.8 | 20.0 | 0.00 | 0.00 | 0.00 | 91 | 1012.3 |
| 20260505110542 | 48 | 166 | 7.8 | 21.7 | 0.00 | 0.00 | 0.00 | 91 | 1012.3 |
| 20260505102041 | 46 | 167 | 9.6 | 19.1 | 0.00 | 0.00 | 0.00 | 93 | 1011.6 |
| 20260505101550 | 46 | 186 | 7.8 | 17.4 | 0.00 | 0.00 | 0.00 | 93 | 1011.5 |
| 20260505101042 | 45 | 197 | 10.4 | 18.2 | 0.00 | 0.00 | 0.00 | 94 | 1011.5 |
| 20260505100547 | 45 | 145 | 8.7 | 18.2 | 0.00 | 0.00 | 0.00 | 94 | 1011.5 |
| 20260505100123 | 45 | 190 | 8.7 | 15.6 | 0.00 | 0.00 | 0.00 | 94 | 1011.5 |
| 20260505095549 | 45 | 157 | 7.0 | 13.9 | 0.00 | 0.00 | 0.00 | 94 | 1011.5 |
| 20260505095046 | 45 | 192 | 7.0 | 14.8 | 0.00 | 0.00 | 0.00 | 94 | 1011.5 |
| 20260505094550 | 45 | 186 | 7.8 | 14.8 | 0.00 | 0.00 | 0.00 | 94 | 1011.3 |
| 20260505094042 | 44 | 169 | 7.8 | 13.0 | 0.00 | 0.00 | 0.00 | 94 | 1011.3 |
| 20260505093543 | 44 | 159 | 7.0 | 13.9 | 0.00 | 0.00 | 0.00 | 94 | 1011.4 |
| 20260505093052 | 44 | 160 | 7.0 | 15.6 | 0.00 | 0.00 | 0.00 | 94 | 1011.3 |
| 20260505092545 | 44 | 180 | 7.8 | 15.6 | 0.00 | 0.00 | 0.00 | 94 | 1011.3 |
| 20260505092042 | 44 | 169 | 7.0 | 13.9 | 0.00 | 0.00 | 0.00 | 94 | 1011.3 |
| 20260505091612 | 44 | 169 | 6.1 | 13.9 | 0.00 | 0.00 | 0.00 | 94 | 1011.3 |
| 20260505091042 | 44 | 182 | 6.1 | 13.9 | 0.00 | 0.00 | 0.00 | 94 | 1011.3 |
| 20260505090542 | 44 | 157 | 6.1 | 13.9 | 0.00 | 0.00 | 0.00 | 94 | 1011.3 |
| 20260505090059 | 44 | 174 | 7.0 | 12.2 | 0.00 | 0.00 | 0.00 | 94 | 1011.4 |
| 20260505085545 | 44 | 172 | 5.2 | 9.6 | 0.00 | 0.00 | 0.00 | 93 | 1011.3 |
| 20260505085041 | 44 | 159 | 5.2 | 11.3 | 0.00 | 0.00 | 0.00 | 93 | 1011.3 |
| 20260505084549 | 44 | 177 | 6.1 | 11.3 | 0.00 | 0.00 | 0.00 | 93 | 1011.3 |
| 20260505084046 | 44 | 169 | 4.3 | 11.3 | 0.00 | 0.00 | 0.00 | 93 | 1011.4 |
| 20260505083544 | 44 | 164 | 4.3 | 13.9 | 0.00 | 0.00 | 0.00 | 93 | 1011.4 |
| 20260505083052 | 44 | 173 | 4.3 | 13.9 | 0.00 | 0.00 | 0.00 | 93 | 1011.4 |
| 20260505082543 | 44 | 191 | 6.1 | 13.0 | 0.00 | 0.00 | 0.00 | 93 | 1011.4 |
| 20260505082042 | 44 | 153 | 5.2 | 13.0 | 0.00 | 0.00 | 0.00 | 93 | 1011.4 |
| 20260505081553 | 44 | 163 | 5.2 | 13.0 | 0.00 | 0.00 | 0.00 | 93 | 1011.3 |
| 20260505081049 | 44 | 157 | 6.1 | 12.2 | 0.00 | 0.00 | 0.00 | 93 | 1011.4 |
| 20260505080544 | 44 | 187 | 7.0 | 12.2 | 0.00 | 0.00 | 0.00 | 93 | 1011.4 |
| 20260505080053 | 44 | 155 | 5.2 | 10.4 | 0.00 | 0.00 | 0.00 | 93 | 1011.4 |
| 20260505075543 | 44 | 137 | 6.1 | 12.2 | 0.00 | 0.00 | 0.00 | 93 | 1011.4 |
| 20260505075043 | 44 | 171 | 5.2 | 13.0 | 0.00 | 0.00 | 0.00 | 92 | 1011.3 |
| 20260505074552 | 44 | 167 | 4.3 | 13.0 | 0.00 | 0.00 | 0.00 | 92 | 1011.3 |
| 20260505074045 | 44 | 185 | 5.2 | 13.9 | 0.00 | 0.00 | 0.00 | 92 | 1011.4 |
| 20260505073545 | 44 | 167 | 7.8 | 13.9 | 0.00 | 0.00 | 0.00 | 93 | 1011.4 |
| 20260505073059 | 44 | 157 | 7.0 | 13.9 | 0.00 | 0.00 | 0.00 | 92 | 1011.4 |
| 20260505072547 | 44 | 157 | 6.1 | 12.2 | 0.00 | 0.00 | 0.00 | 92 | 1011.3 |
| 20260505072045 | 44 | 189 | 7.0 | 12.2 | 0.00 | 0.00 | 0.00 | 92 | 1011.4 |
| 20260505071552 | 44 | 169 | 5.2 | 13.9 | 0.00 | 0.00 | 0.00 | 92 | 1011.2 |
| 20260505071047 | 44 | 166 | 7.0 | 13.9 | 0.00 | 0.00 | 0.00 | 92 | 1011.2 |
| 20260505070545 | 44 | 164 | 7.0 | 13.9 | 0.00 | 0.00 | 0.00 | 91 | 1011.0 |
| 20260505070059 | 44 | 186 | 7.0 | 13.9 | 0.00 | 0.00 | 0.00 | 91 | 1010.9 |
| 20260505065541 | 45 | 185 | 7.8 | 13.9 | 0.00 | 0.00 | 0.00 | 91 | 1010.8 |
| 20260505065044 | 45 | 186 | 7.0 | 16.5 | 0.00 | 0.00 | 0.00 | 91 | 1010.6 |
| 20260505064607 | 45 | 194 | 8.7 | 16.5 | 0.00 | 0.00 | 0.00 | 92 | 1010.5 |
| 20260505064043 | 45 | 191 | 8.7 | 14.8 | 0.00 | 0.00 | 0.00 | 92 | 1010.3 |
| 20260505063544 | 45 | 175 | 7.0 | 13.0 | 0.00 | 0.00 | 0.00 | 92 | 1010.4 |
| 20260505063057 | 45 | 175 | 7.0 | 13.0 | 0.00 | 0.00 | 0.00 | 91 | 1010.4 |
| 20260505062544 | 45 | 179 | 7.0 | 13.9 | 0.00 | 0.00 | 0.00 | 91 | 1010.4 |
| 20260505062041 | 45 | 186 | 7.8 | 13.9 | 0.00 | 0.00 | 0.00 | 91 | 1010.5 |
| 20260505061601 | 45 | 173 | 6.1 | 12.2 | 0.00 | 0.00 | 0.00 | 91 | 1010.4 |
| 20260505061043 | 45 | 183 | 6.1 | 11.3 | 0.00 | 0.00 | 0.00 | 91 | 1010.4 |
| 20260505060548 | 45 | 182 | 6.1 | 11.3 | 0.00 | 0.00 | 0.00 | 91 | 1010.4 |
| 20260505060059 | 45 | 200 | 6.1 | 11.3 | 0.00 | 0.00 | 0.00 | 91 | 1010.4 |
| 20260505055545 | 45 | 171 | 5.2 | 13.0 | 0.00 | 0.00 | 0.00 | 90 | 1010.4 |
| 20260505055044 | 45 | 186 | 7.8 | 13.0 | 0.00 | 0.00 | 0.00 | 91 | 1010.4 |
| 20260505054623 | 45 | 191 | 5.2 | 10.4 | 0.00 | 0.00 | 0.00 | 90 | 1010.3 |
| 20260505054045 | 45 | 167 | 5.2 | 11.3 | 0.00 | 0.00 | 0.00 | 90 | 1010.5 |
| 20260505053544 | 45 | 171 | 6.1 | 11.3 | 0.00 | 0.00 | 0.00 | 90 | 1010.4 |
| 20260505053056 | 45 | 159 | 5.2 | 12.2 | 0.00 | 0.00 | 0.00 | 90 | 1010.4 |
| 20260505052546 | 45 | 163 | 5.2 | 12.2 | 0.00 | 0.00 | 0.00 | 90 | 1010.6 |
| 20260505052043 | 45 | 180 | 5.2 | 11.3 | 0.00 | 0.00 | 0.00 | 90 | 1010.5 |
| 20260505051551 | 45 | 147 | 6.1 | 10.4 | 0.00 | 0.00 | 0.00 | 90 | 1010.4 |
| 20260505051045 | 45 | 178 | 5.2 | 8.7 | 0.00 | 0.00 | 0.00 | 90 | 1010.5 |
| 20260505050543 | 45 | 151 | 3.5 | 9.6 | 0.00 | 0.00 | 0.00 | 90 | 1010.6 |
| 20260505041601 | 45 | 159 | 7.0 | 12.2 | 0.00 | 0.00 | 0.00 | 89 | 1010.7 |
| 20260505041045 | 45 | 181 | 7.0 | 12.2 | 0.00 | 0.00 | 0.00 | 89 | 1010.8 |
| 20260505040546 | 45 | 173 | 6.1 | 12.2 | 0.00 | 0.00 | 0.00 | 89 | 1010.8 |
| 20260505035544 | 45 | 188 | 6.1 | 11.3 | 0.00 | 0.03 | 0.00 | 89 | 1010.9 |
| 20260505035042 | 45 | 168 | 6.1 | 13.0 | 0.00 | 0.03 | 0.00 | 89 | 1010.9 |
| 20260505034550 | 45 | 161 | 7.0 | 13.0 | 0.00 | 0.03 | 0.00 | 89 | 1010.8 |
| 20260505034042 | 45 | 163 | 6.1 | 13.0 | 0.00 | 0.03 | 0.00 | 89 | 1010.7 |
| 20260505033542 | 45 | 191 | 7.0 | 13.0 | 0.00 | 0.03 | 0.00 | 89 | 1010.7 |
| 20260505033053 | 45 | 186 | 7.0 | 11.3 | 0.00 | 0.03 | 0.00 | 89 | 1010.6 |
| 20260505032544 | 45 | 164 | 5.2 | 13.9 | 0.00 | 0.03 | 0.00 | 88 | 1010.7 |
| 20260505032047 | 45 | 184 | 6.1 | 13.9 | 0.00 | 0.03 | 0.00 | 88 | 1010.3 |
| 20260505031550 | 45 | 166 | 7.0 | 14.8 | 0.00 | 0.03 | 0.00 | 88 | 1010.4 |
| 20260505031041 | 45 | 150 | 7.0 | 17.4 | 0.00 | 0.03 | 0.00 | 88 | 1010.4 |
| 20260505030544 | 45 | 179 | 7.8 | 17.4 | 0.00 | 0.03 | 0.00 | 88 | 1010.4 |
| 20260505030104 | 45 | 158 | 6.1 | 12.2 | 0.00 | 0.03 | 0.00 | 88 | 1010.3 |
| 20260505025541 | 45 | 179 | 7.0 | 12.2 | 0.00 | 0.05 | 0.03 | 88 | 1010.2 |
| 20260505025044 | 45 | 173 | 5.2 | 11.3 | 0.00 | 0.05 | 0.03 | 87 | 1010.3 |
| 20260505024556 | 45 | 180 | 5.2 | 12.2 | 0.00 | 0.05 | 0.03 | 88 | 1010.3 |
| 20260505024041 | 45 | 180 | 6.1 | 12.2 | 0.00 | 0.05 | 0.03 | 88 | 1010.2 |
| 20260505023545 | 45 | 180 | 6.1 | 13.0 | 0.00 | 0.05 | 0.03 | 88 | 1010.1 |
| 20260505023053 | 45 | 181 | 7.0 | 13.0 | 0.00 | 0.05 | 0.03 | 88 | 1010.0 |
| 20260505022542 | 45 | 198 | 6.1 | 12.2 | 0.00 | 0.05 | 0.03 | 88 | 1010.2 |
| 20260505022045 | 45 | 173 | 6.1 | 13.0 | 0.00 | 0.05 | 0.03 | 88 | 1010.1 |
| 20260505021558 | 45 | 200 | 7.0 | 13.0 | 0.00 | 0.05 | 0.03 | 88 | 1010.1 |
| 20260505021044 | 45 | 181 | 7.0 | 13.9 | 0.00 | 0.05 | 0.03 | 88 | 1010.0 |
| 20260505020544 | 45 | 149 | 7.0 | 13.9 | 0.00 | 0.05 | 0.03 | 88 | 1010.0 |
| 20260505015542 | 45 | 195 | 6.1 | 13.0 | 0.00 | 0.11 | 0.03 | 88 | 1009.9 |
| 20260505015049 | 45 | 190 | 5.2 | 11.3 | 0.00 | 0.11 | 0.03 | 88 | 1009.9 |
| 20260505014556 | 45 | 178 | 6.1 | 11.3 | 0.00 | 0.11 | 0.03 | 88 | 1009.8 |
| 20260505014045 | 45 | 178 | 6.1 | 11.3 | 0.00 | 0.11 | 0.03 | 88 | 1009.8 |
| 20260505013545 | 45 | 198 | 6.1 | 11.3 | 0.00 | 0.11 | 0.03 | 88 | 1009.8 |
| 20260505013054 | 45 | 172 | 5.2 | 11.3 | 0.00 | 0.11 | 0.03 | 89 | 1009.6 |
| 20260505012544 | 45 | 197 | 5.2 | 10.4 | 0.00 | 0.11 | 0.03 | 89 | 1009.6 |
| 20260505012046 | 45 | 196 | 5.2 | 10.4 | 0.00 | 0.11 | 0.03 | 89 | 1009.4 |
| 20260505011551 | 45 | 195 | 4.3 | 12.2 | 0.00 | 0.11 | 0.03 | 89 | 1009.5 |
| 20260505011043 | 45 | 196 | 6.1 | 12.2 | 0.00 | 0.11 | 0.03 | 88 | 1009.5 |
| 20260505010544 | 45 | 184 | 7.0 | 13.9 | 0.00 | 0.11 | 0.03 | 89 | 1009.4 |
| 20260505010107 | 45 | 177 | 7.0 | 13.9 | 0.00 | 0.11 | 0.03 | 89 | 1009.3 |
| 20260505005545 | 45 | 201 | 7.8 | 13.9 | 0.00 | 0.31 | 0.03 | 89 | 1009.3 |
| 20260505005043 | 45 | 193 | 7.8 | 13.0 | 0.00 | 0.31 | 0.03 | 89 | 1009.1 |
| 20260505004552 | 45 | 196 | 7.0 | 12.2 | 0.00 | 0.31 | 0.03 | 89 | 1009.1 |
| 20260505004041 | 45 | 200 | 7.8 | 13.9 | 0.00 | 0.31 | 0.03 | 89 | 1009.1 |
| 20260505003545 | 45 | 194 | 7.0 | 13.9 | 0.00 | 0.31 | 0.03 | 88 | 1008.9 |
| 20260505003053 | 45 | 190 | 7.8 | 13.0 | 0.00 | 0.31 | 0.03 | 88 | 1008.9 |
| 20260505002546 | 45 | 208 | 8.7 | 13.0 | 0.00 | 0.31 | 0.03 | 89 | 1008.9 |
| 20260505002046 | 45 | 180 | 7.0 | 12.2 | 0.00 | 0.31 | 0.03 | 88 | 1008.8 |
| 20260505001553 | 45 | 209 | 8.7 | 12.2 | 0.00 | 0.31 | 0.03 | 89 | 1008.9 |
| 20260505001047 | 45 | 217 | 6.1 | 13.9 | 0.00 | 0.31 | 0.03 | 89 | 1008.8 |
| 20260505000545 | 45 | 214 | 7.0 | 13.9 | 0.00 | 0.31 | 0.03 | 88 | 1008.8 |
| 20260505000100 | 45 | 205 | 7.8 | 12.2 | 0.00 | 0.31 | 0.03 | 88 | 1008.8 |
| 20260504235547 | 45 | 192 | 7.0 | 12.2 | 0.00 | 0.51 | 0.03 | 88 | 1008.7 |
| 20260504235042 | 45 | 206 | 6.1 | 12.2 | 0.00 | 0.51 | 0.03 | 88 | 1008.5 |
| 20260504234553 | 45 | 207 | 7.0 | 13.0 | 0.00 | 0.51 | 0.03 | 88 | 1008.5 |
| 20260504234045 | 45 | 204 | 7.0 | 13.0 | 0.00 | 0.51 | 0.03 | 88 | 1008.4 |
| 20260504233543 | 45 | 223 | 7.0 | 11.3 | 0.00 | 0.51 | 0.03 | 87 | 1008.4 |
| 20260504233057 | 45 | 181 | 7.8 | 13.0 | 0.00 | 0.51 | 0.03 | 87 | 1008.1 |
| 20260504232544 | 45 | 198 | 7.0 | 13.9 | 0.00 | 0.51 | 0.03 | 87 | 1008.0 |
| 20260504232044 | 45 | 206 | 7.8 | 13.9 | 0.00 | 0.51 | 0.03 | 87 | 1008.0 |
| 20260504231556 | 45 | 197 | 6.1 | 11.3 | 0.00 | 0.51 | 0.03 | 88 | 1008.1 |
| 20260504231045 | 45 | 209 | 7.0 | 12.2 | 0.00 | 0.51 | 0.03 | 87 | 1008.0 |
| 20260504230545 | 45 | 223 | 7.0 | 12.2 | 0.00 | 0.51 | 0.03 | 87 | 1007.9 |
| 20260504230110 | 45 | 223 | 7.0 | 12.2 | 0.00 | 0.51 | 0.03 | 87 | 1007.8 |
| 20260504225548 | 46 | 209 | 7.0 | 12.2 | 0.00 | 0.70 | 0.03 | 87 | 1007.6 |
| 20260504225047 | 46 | 213 | 7.8 | 13.9 | 0.00 | 0.70 | 0.03 | 87 | 1007.6 |
| 20260504224607 | 46 | 215 | 8.7 | 14.8 | 0.00 | 0.70 | 0.03 | 87 | 1007.5 |
| 20260504224045 | 46 | 215 | 8.7 | 14.8 | 0.00 | 0.70 | 0.03 | 87 | 1007.4 |
| 20260504223544 | 46 | 189 | 7.8 | 13.0 | 0.00 | 0.70 | 0.03 | 86 | 1007.2 |
| 20260504223100 | 46 | 181 | 7.0 | 13.9 | 0.00 | 0.70 | 0.03 | 85 | 1007.1 |
| 20260504222544 | 47 | 217 | 7.8 | 13.9 | 0.00 | 0.70 | 0.03 | 84 | 1007.2 |
| 20260504222043 | 47 | 184 | 8.7 | 17.4 | 0.00 | 0.70 | 0.03 | 85 | 1006.9 |
| 20260504221549 | 47 | 213 | 7.0 | 17.4 | 0.00 | 0.70 | 0.03 | 85 | 1007.0 |
| 20260504221043 | 47 | 182 | 6.1 | 13.9 | 0.00 | 0.70 | 0.03 | 86 | 1006.8 |
| 20260504220541 | 47 | 182 | 7.0 | 13.9 | 0.00 | 0.70 | 0.03 | 85 | 1006.7 |
| 20260504220056 | 47 | 173 | 7.8 | 15.6 | 0.00 | 0.70 | 0.03 | 85 | 1006.7 |
| 20260504215544 | 47 | 192 | 7.8 | 16.5 | 0.00 | 0.74 | 0.03 | 85 | 1006.6 |
| 20260504215044 | 47 | 173 | 9.6 | 16.5 | 0.00 | 0.74 | 0.03 | 84 | 1006.7 |
| 20260504214551 | 48 | 160 | 8.7 | 17.4 | 0.00 | 0.74 | 0.03 | 83 | 1006.9 |
| 20260504214045 | 48 | 184 | 7.0 | 17.4 | 0.00 | 0.74 | 0.03 | 84 | 1006.7 |
| 20260504213545 | 48 | 196 | 8.7 | 16.5 | 0.00 | 0.74 | 0.03 | 83 | 1006.9 |
| 20260504213048 | 49 | 199 | 8.7 | 19.1 | 0.00 | 0.74 | 0.03 | 82 | 1006.8 |
| 20260504212545 | 49 | 155 | 8.7 | 19.1 | 0.00 | 0.74 | 0.03 | 81 | 1006.9 |
| 20260504212045 | 50 | 170 | 7.0 | 15.6 | 0.00 | 0.74 | 0.03 | 82 | 1006.8 |
| 20260504211557 | 49 | 169 | 8.7 | 15.6 | 0.00 | 0.74 | 0.03 | 83 | 1006.8 |
| 20260504211043 | 49 | 207 | 7.0 | 14.8 | 0.00 | 0.74 | 0.03 | 84 | 1006.8 |
| 20260504210543 | 49 | 182 | 7.8 | 13.9 | 0.00 | 0.74 | 0.03 | 84 | 1006.9 |
| 20260504210101 | 48 | 159 | 7.0 | 13.9 | 0.00 | 0.74 | 0.03 | 86 | 1006.9 |
| 20260504205544 | 47 | 176 | 7.0 | 14.8 | 0.00 | 0.74 | 0.03 | 86 | 1007.0 |
| 20260504205041 | 47 | 180 | 7.8 | 14.8 | 0.00 | 0.74 | 0.03 | 86 | 1007.2 |
| 20260504204554 | 47 | 185 | 7.0 | 13.9 | 0.00 | 0.74 | 0.03 | 86 | 1007.2 |
| 20260504204041 | 47 | 173 | 7.0 | 16.5 | 0.00 | 0.74 | 0.03 | 86 | 1007.2 |
| 20260504203541 | 47 | 180 | 7.0 | 16.5 | 0.00 | 0.74 | 0.03 | 86 | 1007.3 |
| 20260504203048 | 47 | 186 | 7.0 | 13.9 | 0.00 | 0.74 | 0.03 | 86 | 1007.3 |
| 20260504202541 | 47 | 163 | 6.1 | 13.0 | 0.00 | 0.74 | 0.03 | 86 | 1007.3 |
| 20260504202041 | 46 | 192 | 6.1 | 13.0 | 0.00 | 0.74 | 0.03 | 86 | 1007.3 |
| 20260504201551 | 46 | 180 | 7.0 | 13.0 | 0.00 | 0.74 | 0.03 | 86 | 1007.3 |
| 20260504201044 | 46 | 166 | 7.8 | 13.0 | 0.00 | 0.74 | 0.03 | 86 | 1007.3 |
| 20260504200542 | 47 | 184 | 7.0 | 13.9 | 0.00 | 0.74 | 0.03 | 85 | 1007.4 |
| 20260504200101 | 47 | 183 | 7.0 | 15.6 | 0.00 | 0.74 | 0.03 | 85 | 1007.4 |
| 20260504195544 | 47 | 195 | 6.1 | 15.6 | 0.00 | 0.79 | 0.03 | 85 | 1007.5 |
| 20260504195042 | 47 | 197 | 8.7 | 15.6 | 0.00 | 0.79 | 0.03 | 85 | 1007.4 |
| 20260504194550 | 47 | 209 | 7.8 | 17.4 | 0.00 | 0.79 | 0.03 | 85 | 1007.3 |
| 20260504194041 | 47 | 201 | 7.8 | 17.4 | 0.00 | 0.79 | 0.03 | 85 | 1007.4 |
| 20260504193543 | 48 | 180 | 8.7 | 16.5 | 0.00 | 0.79 | 0.03 | 84 | 1007.4 |
| 20260504193051 | 48 | 190 | 7.8 | 15.6 | 0.00 | 0.79 | 0.03 | 85 | 1007.4 |
| 20260504192545 | 47 | 219 | 8.7 | 17.4 | 0.00 | 0.79 | 0.03 | 85 | 1007.2 |
| 20260504192044 | 47 | 175 | 8.7 | 17.4 | 0.00 | 0.79 | 0.03 | 84 | 1007.3 |
| 20260504191605 | 48 | 175 | 10.4 | 21.7 | 0.00 | 0.79 | 0.03 | 81 | 1007.2 |
| 20260504191045 | 50 | 205 | 9.6 | 21.7 | 0.00 | 0.79 | 0.03 | 81 | 1007.0 |
| 20260504190547 | 50 | 163 | 12.2 | 21.7 | 0.00 | 0.79 | 0.03 | 80 | 1007.0 |
| 20260504190051 | 51 | 188 | 10.4 | 21.7 | 0.00 | 0.79 | 0.03 | 79 | 1006.9 |
| 20260504185542 | 51 | 167 | 10.4 | 21.7 | 0.00 | 0.90 | 0.03 | 80 | 1006.9 |
| 20260504185043 | 51 | 213 | 9.6 | 20.9 | 0.00 | 0.90 | 0.03 | 80 | 1006.8 |
| 20260504184552 | 50 | 177 | 11.3 | 20.0 | 0.00 | 0.90 | 0.03 | 80 | 1006.8 |
| 20260504184043 | 50 | 186 | 11.3 | 20.0 | 0.00 | 0.90 | 0.03 | 80 | 1006.8 |
| 20260504183544 | 51 | 169 | 8.7 | 20.0 | 0.00 | 0.90 | 0.03 | 80 | 1006.9 |
| 20260504183050 | 50 | 188 | 9.6 | 20.0 | 0.00 | 0.90 | 0.03 | 80 | 1007.0 |
| 20260504182541 | 50 | 163 | 11.3 | 20.0 | 0.00 | 0.90 | 0.03 | 80 | 1007.0 |
| 20260504182044 | 50 | 205 | 12.2 | 20.0 | 0.00 | 0.90 | 0.03 | 79 | 1007.1 |
| 20260504181553 | 50 | 181 | 9.6 | 21.7 | 0.00 | 0.90 | 0.03 | 81 | 1007.0 |
| 20260504181041 | 49 | 180 | 10.4 | 22.6 | 0.00 | 0.90 | 0.03 | 81 | 1006.9 |
| 20260504180542 | 49 | 207 | 11.3 | 22.6 | 0.00 | 0.90 | 0.03 | 80 | 1006.9 |
| 20260504180051 | 50 | 203 | 11.3 | 22.6 | 0.00 | 0.90 | 0.03 | 79 | 1007.0 |
| 20260504175543 | 50 | 182 | 12.2 | 20.9 | 0.00 | 1.06 | 0.03 | 79 | 1006.8 |
| 20260504175045 | 50 | 194 | 11.3 | 20.9 | 0.00 | 1.06 | 0.03 | 79 | 1006.9 |
| 20260504174555 | 51 | 144 | 9.6 | 19.1 | 0.00 | 1.06 | 0.03 | 79 | 1006.9 |
| 20260504174044 | 51 | 186 | 9.6 | 20.0 | 0.00 | 1.06 | 0.03 | 78 | 1006.8 |
| 20260504173545 | 51 | 179 | 9.6 | 20.0 | 0.00 | 1.06 | 0.03 | 78 | 1006.8 |
| 20260504173056 | 51 | 182 | 7.8 | 20.9 | 0.00 | 1.06 | 0.03 | 78 | 1007.0 |
| 20260504172548 | 51 | 190 | 9.6 | 21.7 | 0.00 | 1.06 | 0.03 | 80 | 1007.0 |
| 20260504172043 | 50 | 196 | 11.3 | 21.7 | 0.00 | 1.06 | 0.03 | 78 | 1007.1 |
| 20260504171600 | 50 | 215 | 9.6 | 17.4 | 0.00 | 1.06 | 0.03 | 79 | 1007.2 |
| 20260504171043 | 50 | 206 | 9.6 | 17.4 | 0.00 | 1.06 | 0.03 | 80 | 1007.2 |
| 20260504170544 | 50 | 198 | 10.4 | 18.2 | 0.00 | 1.06 | 0.03 | 80 | 1007.2 |
| 20260504151042 | 47 | 205 | 11.3 | 18.2 | 0.00 | 1.66 | 0.03 | 84 | 1008.2 |
| 20260504150542 | 47 | 204 | 11.3 | 16.5 | 0.00 | 1.66 | 0.03 | 84 | 1008.2 |
| 20260504141043 | 46 | 220 | 10.4 | 14.8 | 0.00 | 2.01 | 0.03 | 84 | 1008.2 |
| 20260504140543 | 46 | 231 | 9.6 | 14.8 | 0.00 | 2.01 | 0.03 | 85 | 1008.2 |
| 20260504130545 | 45 | 230 | 9.6 | 15.6 | 0.00 | 2.11 | 0.03 | 86 | 1008.2 |
| 20260504120129 | 45 | 232 | 11.3 | 17.4 | 0.00 | 2.16 | 0.03 | 82 | 1007.8 |